SHIJIAN-6 02A (SJ-6 02A)

Last updated on Thu Jul 03 2025 00:03:31 GMT+0000 (Coordinated Universal Time)

1 29505U 06046A 25183.61122659 .00003939 00000+0 23563-3 0 9993 2 29505 97.6807 217.4229 0001753 253.2730 106.8307 15.11641440 19366
UTC large
Height (km)
Speed (km/s)
/
Latitude / Longitude
Inclination (degrees)
Orbital Period (minutes)
Azimuth
Elevation
Range (km)
Doppler Factor

Next 0 passes for location: London (51.5072 / 0.1276)

Sorry there are no passes over London.